• In Uzbekistan
  • List of Countries
  • For 7 days
  • Water Temperature
  • Satellite Maps
  • Weather Map
  • Weather Widgets
  • user-avatar
    Login

    Hourly Weather Guangzhou

    Today, 19 June, Wednesday

    Time Temperature Precipitation Wind Pressure Humidity
    00:00 +33°C° 0 mm 3 mps 755 mmHg 64%
    01:00 +33°C° 0 mm 3 mps 755 mmHg 66%
    02:00 +32°C° 0 mm 2 mps 755 mmHg 68%
    03:00 +31°C° 0 mm 2 mps 755 mmHg 69%
    04:00 +31°C° 0 mm 2 mps 755 mmHg 70%
    05:00 +31°C° 0 mm 2 mps 755 mmHg 71%
    06:00 +32°C° 0 mm 2 mps 755 mmHg 69%
    07:00 +32°C° 0 mm 2 mps 755 mmHg 67%
    08:00 +32°C° 0 mm 1 mps 756 mmHg 66%
    09:00 +35°C° 0 mm 2 mps 756 mmHg 60%
    10:00 +36°C° 0 mm 2 mps 756 mmHg 55%
    11:00 +37°C° 0 mm 2 mps 756 mmHg 49%
    12:00 +37°C° 0 mm 3 mps 755 mmHg 49%
    13:00 +37°C° 0 mm 3 mps 754 mmHg 50%
    14:00 +38°C° 0 mm 2 mps 754 mmHg 48%
    15:00 +38°C° 0 mm 3 mps 754 mmHg 49%
    16:00 +38°C° 0 mm 4 mps 753 mmHg 50%
    17:00 +38°C° 0 mm 4 mps 753 mmHg 51%
    18:00 +37°C° 0 mm 4 mps 753 mmHg 53%
    19:00 +36°C° 0 mm 4 mps 753 mmHg 55%
    20:00 +35°C° 0 mm 4 mps 754 mmHg 57%
    21:00 +35°C° 0 mm 4 mps 754 mmHg 59%
    22:00 +34°C° 0 mm 4 mps 755 mmHg 60%
    23:00 +34°C° 0 mm 4 mps 755 mmHg 62%

    Tomorrow, 20 June, Thursday

    Time Temperature Precipitation Wind Pressure Humidity
    00:00 +34°C° 0 mm 4 mps 755 mmHg 64%
    01:00 +33°C° 0 mm 4 mps 754 mmHg 66%
    02:00 +33°C° 0 mm 4 mps 754 mmHg 69%
    03:00 +33°C° 0 mm 3 mps 754 mmHg 70%
    04:00 +31°C° 0 mm 3 mps 754 mmHg 71%
    05:00 +31°C° 0 mm 2 mps 754 mmHg 72%
    06:00 +32°C° 0 mm 2 mps 754 mmHg 70%
    07:00 +34°C° 0 mm 3 mps 754 mmHg 68%
    08:00 +34°C° 0 mm 3 mps 754 mmHg 65%
    09:00 +35°C° 0.1 mm 3 mps 754 mmHg 61%
    10:00 +37°C° 0.1 mm 3 mps 755 mmHg 56%
    11:00 +38°C° 0.1 mm 4 mps 755 mmHg 51%
    12:00 +38°C° 0.3 mm 4 mps 754 mmHg 50%
    13:00 +40°C° 0.3 mm 5 mps 754 mmHg 48%
    14:00 +40°C° 0.3 mm 5 mps 753 mmHg 47%
    15:00 +40°C° 0 mm 5 mps 753 mmHg 48%
    16:00 +40°C° 0 mm 5 mps 752 mmHg 48%
    17:00 +40°C° 0 mm 6 mps 752 mmHg 49%
    18:00 +39°C° 0 mm 5 mps 752 mmHg 53%
    19:00 +37°C° 0 mm 5 mps 752 mmHg 57%
    20:00 +35°C° 0 mm 5 mps 753 mmHg 61%
    21:00 +35°C° 0 mm 5 mps 753 mmHg 63%
    22:00 +34°C° 0 mm 5 mps 753 mmHg 65%
    23:00 +34°C° 0 mm 5 mps 754 mmHg 68%

    Day after tomorrow, 21 June, Friday

    Time Temperature Precipitation Wind Pressure Humidity
    00:00 +34°C° 0 mm 4 mps 753 mmHg 69%
    01:00 +33°C° 0 mm 4 mps 753 mmHg 70%
    02:00 +33°C° 0 mm 4 mps 753 mmHg 71%
    03:00 +33°C° 0 mm 4 mps 753 mmHg 72%
    04:00 +33°C° 0 mm 3 mps 753 mmHg 73%
    05:00 +33°C° 0 mm 3 mps 753 mmHg 74%
    06:00 +33°C° 0.1 mm 3 mps 753 mmHg 72%
    07:00 +33°C° 0.1 mm 4 mps 753 mmHg 70%
    08:00 +34°C° 0.1 mm 4 mps 753 mmHg 68%
    09:00 +35°C° 0 mm 4 mps 754 mmHg 62%
    10:00 +37°C° 0 mm 4 mps 754 mmHg 57%
    11:00 +39°C° 0 mm 5 mps 754 mmHg 51%
    12:00 +39°C° 0.1 mm 5 mps 753 mmHg 50%
    13:00 +40°C° 0.1 mm 5 mps 753 mmHg 50%
    14:00 +40°C° 0.1 mm 5 mps 752 mmHg 49%
    15:00 +40°C° 0 mm 5 mps 752 mmHg 50%
    16:00 +40°C° 0 mm 5 mps 751 mmHg 51%
    17:00 +39°C° 0 mm 5 mps 751 mmHg 52%
    18:00 +37°C° 0 mm 5 mps 751 mmHg 55%
    19:00 +36°C° 0 mm 5 mps 751 mmHg 59%
    20:00 +35°C° 0 mm 5 mps 751 mmHg 62%
    21:00 +35°C° 0 mm 5 mps 752 mmHg 64%
    22:00 +34°C° 0 mm 5 mps 752 mmHg 66%
    23:00 +34°C° 0 mm 5 mps 753 mmHg 68%

    22 June, Saturday

    Time Temperature Precipitation Wind Pressure Humidity
    00:00 +34°C° 0 mm 4 mps 752 mmHg 70%
    01:00 +33°C° 0 mm 4 mps 752 mmHg 71%
    02:00 +33°C° 0 mm 4 mps 752 mmHg 72%
    03:00 +33°C° 0 mm 4 mps 752 mmHg 72%
    04:00 +33°C° 0 mm 4 mps 752 mmHg 73%
    05:00 +33°C° 0 mm 3 mps 752 mmHg 73%
    06:00 +33°C° 0 mm 3 mps 752 mmHg 71%
    07:00 +34°C° 0 mm 4 mps 752 mmHg 69%
    08:00 +34°C° 0 mm 4 mps 752 mmHg 66%
    09:00 +36°C° 0 mm 4 mps 752 mmHg 61%
    10:00 +37°C° 0 mm 4 mps 752 mmHg 56%
    11:00 +39°C° 0 mm 5 mps 752 mmHg 51%
    12:00 +40°C° 0.4 mm 5 mps 751 mmHg 50%
    13:00 +40°C° 0.4 mm 5 mps 751 mmHg 50%
    14:00 +41°C° 0.4 mm 5 mps 750 mmHg 49%
    15:00 +40°C° 0.4 mm 5 mps 750 mmHg 51%
    16:00 +40°C° 0.4 mm 5 mps 750 mmHg 53%
    17:00 +39°C° 0.4 mm 5 mps 749 mmHg 55%
    18:00 +37°C° 0 mm 5 mps 750 mmHg 58%
    19:00 +36°C° 0 mm 5 mps 750 mmHg 61%
    20:00 +35°C° 0 mm 5 mps 751 mmHg 65%
    21:00 +35°C° 0 mm 5 mps 751 mmHg 66%
    22:00 +34°C° 0 mm 5 mps 751 mmHg 68%
    23:00 +34°C° 0 mm 4 mps 751 mmHg 69%

    23 June, Sunday

    Time Temperature Precipitation Wind Pressure Humidity
    00:00 +34°C° 0.1 mm 4 mps 751 mmHg 70%
    01:00 +33°C° 0.1 mm 4 mps 751 mmHg 71%
    02:00 +33°C° 0.1 mm 4 mps 751 mmHg 72%
    03:00 +33°C° 0.2 mm 4 mps 751 mmHg 73%
    04:00 +33°C° 0.2 mm 4 mps 750 mmHg 73%
    05:00 +33°C° 0.2 mm 4 mps 750 mmHg 74%
    06:00 +33°C° 0 mm 4 mps 751 mmHg 72%
    07:00 +34°C° 0 mm 4 mps 751 mmHg 71%
    08:00 +34°C° 0 mm 4 mps 752 mmHg 69%
    09:00 +35°C° 0 mm 4 mps 752 mmHg 65%
    10:00 +36°C° 0 mm 4 mps 752 mmHg 61%
    11:00 +37°C° 0 mm 4 mps 752 mmHg 57%
    12:00 +37°C° 1.7 mm 4 mps 751 mmHg 57%
    13:00 +37°C° 1.7 mm 4 mps 751 mmHg 57%
    14:00 +37°C° 1.7 mm 3 mps 751 mmHg 57%
    15:00 +36°C° 4 mm 3 mps 751 mmHg 61%
    16:00 +35°C° 4 mm 2 mps 751 mmHg 65%
    17:00 +33°C° 4 mm 1 mps 750 mmHg 69%
    18:00 +33°C° 1.2 mm 1 mps 751 mmHg 69%
    19:00 +34°C° 1.2 mm 2 mps 751 mmHg 69%
    20:00 +32°C° 1.2 mm 2 mps 752 mmHg 69%
    21:00 +32°C° 1.1 mm 2 mps 752 mmHg 70%
    22:00 +32°C° 1.1 mm 2 mps 753 mmHg 70%
    23:00 +32°C° 1.1 mm 2 mps 753 mmHg 71%

    24 June, Monday

    Time Temperature Precipitation Wind Pressure Humidity
    00:00 +32°C° 1.7 mm 2 mps 753 mmHg 73%
    01:00 +31°C° 1.7 mm 2 mps 752 mmHg 75%
    02:00 +31°C° 1.7 mm 2 mps 752 mmHg 76%
    03:00 +31°C° 1 mm 2 mps 752 mmHg 77%
    04:00 +31°C° 1 mm 2 mps 752 mmHg 77%
    05:00 +30°C° 1 mm 2 mps 752 mmHg 78%
    06:00 +31°C° 0.4 mm 2 mps 752 mmHg 76%
    07:00 +31°C° 0.4 mm 2 mps 753 mmHg 75%
    08:00 +31°C° 0.4 mm 2 mps 753 mmHg 74%
    09:00 +32°C° 0.1 mm 2 mps 753 mmHg 69%
    10:00 +34°C° 0.1 mm 2 mps 754 mmHg 65%
    11:00 +35°C° 0.1 mm 2 mps 754 mmHg 61%
    12:00 +35°C° 1.6 mm 2 mps 753 mmHg 62%
    13:00 +35°C° 1.6 mm 2 mps 753 mmHg 64%
    14:00 +34°C° 1.6 mm 2 mps 753 mmHg 65%
    15:00 +34°C° 2.1 mm 2 mps 753 mmHg 66%
    16:00 +33°C° 2.1 mm 1 mps 753 mmHg 66%
    17:00 +33°C° 2.1 mm 1 mps 753 mmHg 66%
    18:00 +32°C° 1.6 mm 1 mps 753 mmHg 67%
    19:00 +32°C° 1.6 mm 2 mps 753 mmHg 67%
    20:00 +32°C° 1.6 mm 2 mps 754 mmHg 68%
    21:00 +32°C° 0.4 mm 2 mps 754 mmHg 68%
    22:00 +33°C° 0.4 mm 3 mps 754 mmHg 68%
    23:00 +33°C° 0.4 mm 4 mps 755 mmHg 68%
    Show more